Flag Weather past 2 weeks in Vevay, Indiana, U.S.A.

Now
33 °F

Passing clouds.


Feels Like: 28 °F
Forecast: 33 / 51 °F
Wind: 6 mph from Southeast

Location: Cincinnati / Northern Kentucky International Airport

Current Time: Nov 28, 2014 at 10:49:35 PM

Latest Report: Nov 28, 2014 at 9:52 PM


Visibility: 10 mi

Pressure: 30.12 "Hg

Humidity: 52%

Dew point: 17 °F

Location of VevayLocation

Historic Weather in Vevay — Graph

°F

Vevay temperature yesterday

Maximum temperature yesterday: 34 °F (at 10:52 AM)
Minimum temperature yesterday: 28 °F (at 1:52 AM)
Average temperature yesterday: 30 °F

Past Weeks' High & Low Weather Summary

 TemperatureHumidityPressure
High62 °F (Nov 24, 9:52 AM)90% (Nov 23, 5:52 PM)30.55 "Hg (Nov 23, 5:52 PM)
Low11 °F (Nov 19, 2:52 AM)36% (Nov 21, 2:52 PM)29.26 "Hg (Nov 23, 11:52 PM)
Average33 °F64%30.13 "Hg
* Reported Nov 13 8:52 PM — Nov 28 8:52 PM, Vevay, Weather by CustomWeather, © 2014

Note: Actual official high and low records may vary slightly from our data, if they occured in-between our weather recording intervals... More about our weather records

Advertising

Vevay weather history for previous 24 hours

 ConditionsComfort  
Time TempWeatherWind HumidityBarometerVisibility
8:52 PM
Nov 28
33 °FPassing clouds.9 mph52%30.13 "Hg10 mi
7:52 PM33 °FPassing clouds.14 mph52%30.14 "Hg10 mi
6:52 PM32 °FPartly cloudy.12 mph52%30.17 "Hg10 mi
5:52 PM32 °FPartly cloudy.12 mph50%30.19 "Hg10 mi
4:52 PM34 °FPartly sunny.13 mph46%30.22 "Hg10 mi
3:52 PM34 °FBroken clouds.14 mph46%30.23 "Hg10 mi
2:52 PM35 °FOvercast.13 mph46%30.25 "Hg10 mi
1:52 PM33 °FPartly sunny.9 mph49%30.28 "Hg10 mi
12:52 PM33 °FPartly sunny.10 mph49%30.31 "Hg10 mi
11:52 AM31 °FOvercast.12 mph52%30.34 "Hg10 mi
10:52 AM30 °FCloudy.10 mph59%30.39 "Hg10 mi
9:52 AM28 °FPartly sunny.7 mph64%30.39 "Hg10 mi
8:52 AM27 °FOvercast.5 mph69%30.40 "Hg8 mi
7:52 AM27 °FMostly cloudy.6 mph69%30.41 "Hg8 mi
6:52 AM27 °FOvercast.8 mph72%30.42 "Hg9 mi
5:52 AM27 °FOvercast.5 mph69%30.40 "Hg9 mi
4:52 AM27 °FOvercast.No wind66%30.40 "Hg10 mi
3:52 AM26 °FLight snow. Overcast.No wind69%30.40 "Hg9 mi
2:52 AM26 °FOvercast.No wind66%30.40 "Hg10 mi
1:52 AM25 °FPassing clouds.5 mph66%30.39 "Hg10 mi
12:52 AM27 °FLight snow. Overcast.7 mph58%30.40 "Hg9 mi
11:52 PM
Nov 27
28 °FLight snow. Overcast.9 mph64%30.41 "Hg9 mi
10:52 PM28 °FOvercast.12 mph69%30.41 "Hg10 mi
Weather by CustomWeather, © 2014

See weather overviewHow to use our weather pages